STARLINK-11229, 60908

Orbit data source: Space-Track

STARLINK-11229, 60908 is a payload satellite owned by SpaceX/Seattle (US) in LEO that was launched on Sat, 31 Aug 2024 UTC via an FALCON 9 launch vehicle from the Air Force Eastern Test Range (AFETR). Payload-class satellites include a variety of spacecraft equipped with specific instruments for various scientific and technological missions. These include communications satellites like Starlink; space stations such as the ISS; scientific satellites like the Hubble; Earth observation satellites from companies like Planet Labs, Umbra, and HawkEye 360; GPS; miniature CubeSats for education and research; and military/defense satellites.

Loading next visibility...
Identifier
60908, 2024-154F
Orbit
LEO
Country
Flag of USUS
Related business
Manufacturer
SpaceX/Seattle
Mission
Operational Commercial Communications
Bus & Motor
STARLINK V2MD, Unknown motor
Mass
960 kg wet, ~910 kg dry
Launch date (UTC)
2024-08-31 (2 years ago)
Launch vehicle
FALCON 9
Launch site
Air Force Eastern Test Range (AFETR)
Object type
Payload
Rocket body
Debris
Shape & HBR
Box + 2 Pan, 18.1 m
Radar Cross Section
36.964 m², Large (>1 m²)

Expand to show TLE details & history
Last TLE update: 1 day ago

TLE from 1 day ago
0 STARLINK-11229
1 60908U 24154F   26129.50121382  .00000781  00000-0  11305-4 0  9991
2 60908  53.1586 191.6234 0000839  72.9972 287.1138 15.69707544 98066
Epoch: 2026-05-09T12:01Z
TLE epoch observation values (Epoch: 2026-05-09T12:01:44.874Z)
Latitude
0.00002°
Longitude
143.86869°
Altitude
360.482 km
Speed
7.694 km/s
True Right ascension
12h 46m 29s
True Declination
0° 00' 00"
Sunlit
Object was in full shadow at epoch
Visualization orbit readout
Latitude
Unknown
Longitude
Unknown
Altitude
Unknown
Speed
Unknown
Apparent Right ascension
Unknown
Apparent Declination
Unknown
Sunlit
N/A
Visualization observer readout
Local Sidereal Time
19:50:55
Azimuth
Unknown
Elevation
Unknown
Doppler factor
Unknown
Orbital elements
Apogee altitude
360.56 km
Perigee altitude
359.429 km
Semi-major axis
6,738.132 km
Eccentricity
0.00008
Inclination
53.1586°
RAAN
191.6234°
Arg. of periapsis
72.9972°
True anomaly
287.10461°
Mean anomaly
287.1138°
Eccentric anomaly
287.10921°
Mean motion
3.92404 °/min
Orbital period
91.74 mins
BSTAR
0.000011305
Loading maneuver chart data...
Computing Atmospheric mass density...
Loading historical data...
Loading historical data...
Loading historical data...
Loading historical data...
Loading historical data...
Loading historical data...
Loading historical data...

Documentation

Showing up to 5 results
|